Location: Lombard
(41.8800°N, 88.0080°W)
Time: 23:27:18
(UTC-05:00)

Tiros 1 - Pass Details

Date: 31 January 2023
Orbit: 628 x 662 km, 48.4° (Epoch: 20 March)

Event Time Altitude Azimuth Distance (km) Brightness Sun altitude
Rises 04:55:38 0° 291° (WNW) 2,932 - -24.4°
Reaches altitude 10° 04:58:04 10° 299° (WNW) 2,028 - -23.9°
Exits shadow 05:01:51 38° 349° (N) 986 7.9 -23.2°
Maximum altitude 05:02:28 40° 9° (N) 953 8.0 -23.1°
Drops below altitude 10° 05:06:55 10° 80° (E) 2,048 10.8 -22.3°
Sets 05:09:24 0° 87° (E) 2,964 12.1 -21.8°
